[[{"header":{"parameterUnit":"m.s-1","parameterCategory":1,"la1":30.2991,"la2":30.254,"lo1":-89.0895,"lo2":-89.0444,"dy":0.0017,"dx":0.0017,"nx":28,"ny":28,"refTime":"2024-07-31T21:00:00:Z","depth":0,"parameterNumber":2,"parameterNumberName":"U-component_of_WINDS"},"data":[0,0,0,0,0,0,0,0,0,0,0,0,0,0,0,0,0,0,0,0,0,0,0,0,0,0,0,0,0,0,0,0,0,0,0,0,0,0,0,0,0,0,0,0,0,0,0,0,0,0,0,0,0,0,0,0,0,0,1.2563,1.2563,0,1.2549,1.2549,1.2549,1.2526,1.2526,1.2525,1.2525,1.2511,1.2511,1.2511,0,0,0,0,0,0,0,0,0,0,0,0,0,1.2571,1.2571,1.2563,1.2563,1.2563,1.2549,1.2549,1.2549,1.2526,1.2526,1.2525,1.2525,1.2511,1.2511,1.2511,0,0,0,0,0,0,0,0,0,0,0,0,0,1.2563,1.2571,1.2563,1.255,1.2548,1.2549,1.2549,1.2549,1.2526,1.2526,1.2525,1.2525,1.2511,1.2511,1.2511,1.2523,0,0,1.2511,1.2511,0,0,0,0,0,0,0,0,1.2564,1.2563,1.2552,1.2551,1.2549,1.2539,1.2547,1.254,1.2527,1.2535,1.2525,1.2524,1.2521,1.252,1.2519,1.2523,1.2522,1.2511,1.2511,1.2511,1.2511,0,0,0,0,0,0,0,1.2564,1.2563,1.2558,1.2552,1.255,1.2545,1.2543,1.2545,1.2531,1.2534,1.2532,1.2531,1.252,1.2519,1.2518,1.2522,1.2511,1.2511,1.2511,1.2511,1.2538,1.2539,0,0,0,0,0,0,1.2567,1.2564,1.2558,1.2557,1.2555,1.2545,1.2543,1.2543,1.2531,1.2529,1.2532,1.253,1.2519,1.2518,1.2518,1.2533,1.2511,1.2511,1.2511,1.2538,1.2539,1.2539,0,0,0,0,0,0,1.2567,1.2566,1.2558,1.256,1.2559,1.2546,1.2545,1.2543,1.2542,1.2529,1.2527,1.2533,1.2518,1.2517,1.2523,1.2532,1.2511,1.2511,1.2537,1.2538,1.2539,1.2563,0,0,0,0,0,0,1.2567,1.2566,1.2571,1.256,1.2559,1.2564,1.2546,1.2543,1.2542,1.254,1.253,1.2528,1.2518,1.2523,1.2523,1.2532,1.2511,1.2536,1.2537,1.2539,1.2562,1.2565,1.2568,0,0,0,0,0,1.2567,1.2578,1.2571,1.257,1.2564,1.2564,1.2563,1.2552,1.2543,1.2547,1.254,1.2528,1.2531,1.2524,1.2523,1.2533,1.2535,1.2537,1.2539,1.256,1.2565,1.2568,0,0,0,0,0,0,1.2588,1.2576,1.2568,1.2575,1.2571,1.256,1.2565,1.2556,1.2554,1.2552,1.2538,1.2536,1.2543,1.2538,1.253,1.2545,1.2532,1.2533,1.2548,1.2552,1.2555,1.2557,1.2511,0,0,0,0,0,1.2594,1.2595,1.2584,1.2592,1.259,1.2578,1.2578,1.257,1.2564,1.2562,1.2555,1.2551,1.2551,1.2551,1.2551,1.2561,1.2559,1.2567,1.2571,1.2573,1.2575,1.2582,1.2586,1.2545,1.2545,1.2545,0,0,1.2605,1.2599,1.26,1.2596,1.2591,1.2594,1.2577,1.2579,1.2581,1.2563,1.2568,1.2563,1.2557,1.2565,1.2569,1.2561,1.2586,1.2576,1.2578,1.2578,1.2584,1.2588,1.2592,1.2546,1.2546,1.2545,0,0,1.2627,1.2622,1.2628,1.2625,1.2619,1.2611,1.2613,1.2604,1.26,1.2605,1.2592,1.2594,1.2594,1.2591,1.259,1.2613,1.2603,1.2614,1.2631,1.2638,1.2641,1.2644,1.2653,1.2657,1.2615,1.2615,1.2615,0,1.2642,1.2645,1.2633,1.2637,1.2636,1.262,1.2627,1.2624,1.2619,1.2619,1.2611,1.2612,1.2607,1.2615,1.2622,1.262,1.2623,1.2614,1.2641,1.2644,1.2647,1.2656,1.2659,1.2617,1.2616,1.2616,1.2616,0,1.2664,1.2666,1.2672,1.2668,1.2668,1.2673,1.2663,1.2664,1.2656,1.265,1.2656,1.265,1.2649,1.265,1.2642,1.2658,1.2654,1.2644,1.263,1.2652,1.2661,1.2664,1.2619,1.2618,1.2618,1.2617,0,0,1.2697,1.2688,1.269,1.2689,1.2683,1.2684,1.269,1.2689,1.2691,1.2688,1.2693,1.2695,1.2686,1.2685,1.2677,1.2683,1.2704,1.2672,1.2672,1.2679,1.2723,1.2731,1.2735,1.2697,1.2698,1.2698,1.2724,0,1.2718,1.2727,1.2718,1.2729,1.2732,1.2718,1.2723,1.272,1.2715,1.2717,1.2711,1.2713,1.2701,1.27,1.2706,1.27,1.2713,1.2698,1.2702,1.2703,1.2705,1.2739,1.2747,1.2772,1.2727,1.2727,1.2728,0,1.2744,1.2743,1.2755,1.275,1.2751,1.2755,1.2755,1.2757,1.2754,1.275,1.2749,1.274,1.2746,1.2733,1.2741,1.2732,1.2733,1.2731,1.2732,1.2732,1.2717,1.2741,1.2779,1.2783,1.2733,1.2732,1.2732,0,1.2769,1.2771,1.2778,1.2778,1.2771,1.2775,1.2773,1.2769,1.277,1.277,1.2771,1.2771,1.2772,1.2773,1.2764,1.2755,1.2775,1.276,1.2772,1.2773,1.2777,1.2777,1.2816,1.2777,1.2777,1.2777,1.2777,0,1.2793,1.2801,1.279,1.2795,1.2804,1.2793,1.2803,1.2799,1.2796,1.2801,1.2789,1.2794,1.2782,1.2785,1.2779,1.2788,1.2788,1.2786,1.2784,1.2787,1.2787,1.2788,1.2786,1.2778,1.2778,1.2778,1.2777,0,1.2822,1.2815,1.2823,1.2817,1.2816,1.2823,1.2818,1.2823,1.2817,1.2824,1.2824,1.2816,1.282,1.2812,1.2814,1.281,1.2824,1.2819,1.2825,1.2824,1.2837,1.2836,1.2878,1.2884,1.284,1.2841,1.2841,0,1.2839,1.2845,1.284,1.2843,1.2841,1.2845,1.2847,1.2837,1.2839,1.2837,1.2843,1.2846,1.2848,1.2855,1.2849,1.2852,1.2847,1.2862,1.2848,1.2851,1.2849,1.2849,1.285,1.2865,1.2866,1.2866,1.2866,0,1.2869,1.2866,1.2868,1.287,1.2873,1.2873,1.2873,1.2876,1.2866,1.2869,1.2874,1.2875,1.2879,1.2883,1.2884,1.2882,1.2873,1.2871,1.2874,1.2878,1.2882,1.2881,1.2834,1.287,1.287,1.287,1.2869,1.2869,1.2893,1.2899,1.2897,1.2901,1.29,1.2901,1.2906,1.2902,1.2906,1.2908,1.2902,1.2908,1.2907,1.2908,1.2908,1.2913,1.2906,1.291,1.2912,1.2913,1.2916,1.2881,1.2913,1.2913,1.2913,1.2912,1.2912,0,1.2924,1.2923,1.2927,1.2928,1.2931,1.2923,1.2923,1.2927,1.2933,1.2932,1.2935,1.2941,1.2945,1.2941,1.2944,1.2949,1.2945,1.2951,1.295,1.295,1.2921,1.2918,1.2954,1.2954,1.2954,1.2954,1.2954,1.2954,1.2941,1.295,1.2947,1.2957,1.2956,1.2962,1.2963,1.2964,1.2964,1.2972,1.2975,1.2973,1.2971,1.2975,1.2979,1.2977,1.298,1.2987,1.2984,1.2956,1.2952,1.2948,1.2946,1.2987,1.2987,1.3013,1.3014,1.3014]},{"header":{"parameterUnit":"m.s-1","parameterCategory":1,"la1":30.2991,"la2":30.254,"lo1":-89.0895,"lo2":-89.0444,"dy":0.0017,"dx":0.0017,"nx":28,"ny":28,"refTime":"2024-07-31T21:00:00:Z","depth":0,"parameterNumber":3,"parameterNumberName":"V-component_of_WINDS"},"data":[0,0,0,0,0,0,0,0,0,0,0,0,0,0,0,0,0,0,0,0,0,0,0,0,0,0,0,0,0,0,0,0,0,0,0,0,0,0,0,0,0,0,0,0,0,0,0,0,0,0,0,0,0,0,0,0,0,0,-1.5755,-1.5755,0,-1.5768,-1.5768,-1.5768,-1.5759,-1.5759,-1.5758,-1.5758,-1.577,-1.5771,-1.5771,0,0,0,0,0,0,0,0,0,0,0,0,0,-1.5722,-1.5722,-1.5755,-1.5755,-1.5755,-1.5768,-1.5768,-1.5768,-1.5759,-1.5759,-1.5758,-1.5758,-1.577,-1.5771,-1.5771,0,0,0,0,0,0,0,0,0,0,0,0,0,-1.5736,-1.5723,-1.5754,-1.5752,-1.5752,-1.5768,-1.5768,-1.5768,-1.5759,-1.5759,-1.5758,-1.5758,-1.577,-1.5771,-1.5772,-1.579,0,0,-1.5775,-1.5775,0,0,0,0,0,0,0,0,-1.5735,-1.5737,-1.5752,-1.5752,-1.5752,-1.5761,-1.5761,-1.5775,-1.5759,-1.5756,-1.5758,-1.5757,-1.5767,-1.5769,-1.5772,-1.5791,-1.5791,-1.5775,-1.5775,-1.5776,-1.5776,0,0,0,0,0,0,0,-1.5734,-1.5736,-1.576,-1.5752,-1.5752,-1.575,-1.5752,-1.5763,-1.5765,-1.5757,-1.5756,-1.5758,-1.5767,-1.5771,-1.5773,-1.5791,-1.5775,-1.5776,-1.5776,-1.5777,-1.5828,-1.5828,0,0,0,0,0,0,-1.5733,-1.5735,-1.5759,-1.576,-1.5742,-1.5751,-1.5753,-1.5759,-1.5765,-1.5765,-1.5758,-1.5757,-1.577,-1.5771,-1.5773,-1.5797,-1.5776,-1.5777,-1.5777,-1.5827,-1.5828,-1.5829,0,0,0,0,0,0,-1.5733,-1.5735,-1.5759,-1.5748,-1.575,-1.5753,-1.5759,-1.5759,-1.5764,-1.5766,-1.5766,-1.5762,-1.5769,-1.5772,-1.5787,-1.5797,-1.5777,-1.5778,-1.5826,-1.5827,-1.5828,-1.5844,0,0,0,0,0,0,-1.5732,-1.5735,-1.5742,-1.5748,-1.5751,-1.5772,-1.576,-1.576,-1.5766,-1.5764,-1.577,-1.577,-1.5769,-1.5785,-1.5788,-1.5798,-1.5779,-1.5825,-1.5827,-1.5828,-1.5842,-1.5845,-1.5848,0,0,0,0,0,-1.573,-1.5745,-1.5742,-1.5745,-1.576,-1.5773,-1.5774,-1.5773,-1.5766,-1.5774,-1.5776,-1.577,-1.5795,-1.5787,-1.5789,-1.58,-1.5825,-1.5826,-1.5828,-1.5841,-1.5845,-1.5848,0,0,0,0,0,0,-1.5739,-1.5745,-1.5743,-1.576,-1.5766,-1.5771,-1.578,-1.5777,-1.5784,-1.5783,-1.5781,-1.5782,-1.5799,-1.5801,-1.5791,-1.582,-1.5809,-1.5811,-1.5818,-1.5821,-1.5824,-1.5824,-1.578,0,0,0,0,0,-1.5743,-1.5753,-1.5758,-1.5772,-1.5776,-1.5778,-1.5783,-1.5782,-1.5788,-1.579,-1.5793,-1.5799,-1.5809,-1.5815,-1.5824,-1.5842,-1.5844,-1.5851,-1.5854,-1.5856,-1.5859,-1.5871,-1.5875,-1.5834,-1.5834,-1.5834,0,0,-1.5751,-1.5756,-1.5762,-1.5774,-1.5779,-1.579,-1.578,-1.5791,-1.5799,-1.5792,-1.5807,-1.581,-1.5816,-1.5834,-1.5841,-1.5836,-1.587,-1.5858,-1.586,-1.5861,-1.5873,-1.5877,-1.588,-1.5835,-1.5835,-1.5835,0,0,-1.5772,-1.5776,-1.5789,-1.5795,-1.5803,-1.5804,-1.5807,-1.5814,-1.5816,-1.5831,-1.5826,-1.5836,-1.5852,-1.5857,-1.5862,-1.5888,-1.5884,-1.589,-1.5905,-1.5917,-1.592,-1.5923,-1.5934,-1.5938,-1.5892,-1.5892,-1.5892,0,-1.5781,-1.5797,-1.5796,-1.5809,-1.5816,-1.581,-1.5825,-1.583,-1.584,-1.5844,-1.5838,-1.586,-1.5863,-1.5884,-1.589,-1.5893,-1.5898,-1.589,-1.592,-1.5923,-1.5925,-1.5936,-1.594,-1.5893,-1.5893,-1.5893,-1.5893,0,-1.5809,-1.5821,-1.5831,-1.5842,-1.5849,-1.5862,-1.5864,-1.5872,-1.587,-1.5873,-1.5889,-1.5894,-1.5905,-1.5909,-1.5907,-1.593,-1.5926,-1.592,-1.5909,-1.593,-1.594,-1.5944,-1.5895,-1.5894,-1.5894,-1.5894,0,0,-1.5834,-1.5847,-1.5851,-1.5857,-1.5866,-1.5875,-1.5889,-1.59,-1.5908,-1.5915,-1.5927,-1.5942,-1.5937,-1.5943,-1.5941,-1.5952,-1.5974,-1.5945,-1.5945,-1.5951,-1.6002,-1.6008,-1.6012,-1.5972,-1.5972,-1.5973,-1.6002,0,-1.5857,-1.5882,-1.5882,-1.5905,-1.5917,-1.5913,-1.5926,-1.5933,-1.5936,-1.5947,-1.5949,-1.5961,-1.5952,-1.5956,-1.5966,-1.597,-1.5985,-1.5967,-1.5984,-1.5984,-1.5984,-1.6017,-1.6022,-1.605,-1.6005,-1.6006,-1.6006,0,-1.5886,-1.5896,-1.5921,-1.5931,-1.5936,-1.5947,-1.5959,-1.5969,-1.5977,-1.5979,-1.5987,-1.5984,-1.5999,-1.5988,-1.6009,-1.5997,-1.6004,-1.6007,-1.6008,-1.601,-1.5998,-1.6022,-1.6058,-1.6063,-1.6012,-1.6012,-1.6011,0,-1.5904,-1.5924,-1.5942,-1.5947,-1.5959,-1.5967,-1.5972,-1.598,-1.5988,-1.5998,-1.6003,-1.6015,-1.6021,-1.603,-1.6032,-1.6023,-1.6054,-1.6042,-1.6057,-1.6057,-1.6064,-1.6064,-1.6104,-1.6066,-1.6066,-1.6066,-1.6066,0,-1.593,-1.5946,-1.5951,-1.5962,-1.598,-1.5981,-1.5999,-1.6003,-1.6011,-1.6023,-1.602,-1.6032,-1.6032,-1.6044,-1.6046,-1.6064,-1.6067,-1.6069,-1.6069,-1.607,-1.607,-1.6075,-1.6074,-1.6067,-1.6067,-1.6067,-1.6066,0,-1.5954,-1.5957,-1.5977,-1.5987,-1.599,-1.6003,-1.6012,-1.6023,-1.6026,-1.6042,-1.6046,-1.6051,-1.6065,-1.6068,-1.6084,-1.6085,-1.6108,-1.6106,-1.6106,-1.6106,-1.6121,-1.612,-1.6167,-1.6174,-1.613,-1.6131,-1.6131,0,-1.597,-1.5982,-1.5995,-1.6004,-1.601,-1.6023,-1.6032,-1.6034,-1.6043,-1.6055,-1.6065,-1.6079,-1.6091,-1.6114,-1.6119,-1.6133,-1.6131,-1.6147,-1.6133,-1.6135,-1.6134,-1.6134,-1.6136,-1.615,-1.615,-1.6151,-1.6151,0,-1.6,-1.6002,-1.6015,-1.6029,-1.604,-1.6051,-1.6061,-1.6068,-1.6072,-1.6082,-1.6098,-1.6107,-1.6125,-1.614,-1.6154,-1.6159,-1.6156,-1.6155,-1.616,-1.6161,-1.6161,-1.6163,-1.6114,-1.6154,-1.6154,-1.6154,-1.6153,-1.6153,-1.6022,-1.6034,-1.6045,-1.606,-1.6068,-1.6079,-1.6091,-1.6096,-1.6109,-1.6125,-1.6125,-1.6143,-1.6153,-1.6171,-1.6178,-1.6192,-1.6187,-1.6193,-1.6195,-1.6196,-1.6199,-1.6158,-1.6194,-1.6194,-1.6194,-1.6194,-1.6194,0,-1.6053,-1.6061,-1.6074,-1.609,-1.6103,-1.61,-1.6112,-1.6122,-1.6138,-1.6148,-1.6161,-1.618,-1.6195,-1.6202,-1.6217,-1.6227,-1.6226,-1.6231,-1.6231,-1.6233,-1.6201,-1.6197,-1.6231,-1.6231,-1.6231,-1.6231,-1.6231,-1.6231,-1.6071,-1.6091,-1.6095,-1.612,-1.6128,-1.6146,-1.6153,-1.6164,-1.6172,-1.6194,-1.6207,-1.6212,-1.6222,-1.6238,-1.6252,-1.6254,-1.626,-1.6266,-1.6267,-1.6238,-1.6234,-1.6231,-1.6227,-1.6267,-1.6267,-1.6297,-1.6298,-1.6298]}]]